Location: Corcelles
(46.1547°N, 4.7234°E)
Time: 04:38:34
(UTC+00:00)

Cosmos 407 Rocket - Pass Details

Date: 14 July 2020
Orbit: 744 x 786 km, 74.0° (Epoch: 06 August)

Event Time Altitude Azimuth Distance (km) Brightness Sun altitude
Exits shadow 00:55:14 32° 154° (SSE) 1,312 4.3 -20.5°
Maximum altitude 00:57:10 47° 104° (ESE) 1,040 4.1 -20.4°
Drops below altitude 10° 01:02:16 10° 32° (NNE) 2,356 7.1 -20.1°
Sets 01:04:45 0° 27° (NNE) 3,287 8.3 -20.0°
